Whiting Fld NAS, FL

5:30 PM CST on November 21, 2019 (GMT -0600)
Whiting Field Naval Air Station (North)

Weather History for KNSE - September, 2019

Change the Weather History Date:

Wednesday, September 25, 2019

  Actual Average Record
Temperature  
Mean Temperature 81 °F -  
Max Temperature 95 °F 81 °F 95 °F (2019)
Min Temperature 71 °F 64 °F 55 °F (2001)
Cooling Degree Days 16    
Growing Degree Days 31 (Base 50)    
Moisture  
Dew Point 70 °F    
Average Humidity 70    
Maximum Humidity 90    
Minimum Humidity 44    
Precipitation  
Precipitation 0.00 in - - ()
Sea Level Pressure  
Sea Level Pressure 29.86 in    
Wind  
Wind Speed 5 mph (NW)    
Max Wind Speed 9 mph    
Max Gust Speed -    
Visibility 10 miles    
Events      
Averages and records for this station are not official NWS values.
T = Trace of Precipitation, MM = Missing Value Source: NWS Daily Summary

Daily Weather History Graph

Daily Weather History Graph

Search for Another Location

Airport or City:

Astronomy

Sep. 25, 2019 Rise Set
Actual Time 6:38 AM CDT 6:41 PM CDT
Civil Twilight 6:13 AM CDT 7:05 PM CDT
Nautical Twilight 5:45 AM CDT 7:33 PM CDT
Astronomical Twilight 5:17 AM CDT 8:01 PM CDT
Moon 2:52 AM CDT (9/25) 4:54 PM CDT (9/25)
Length of Visible Light 12h 51m
Length of Day
12h 03m
Waning Crescent, 14% of the Moon is Illuminated
Sep 25
Waning Crescent
Sep 28
New
Oct 5
First Quarter
Oct 13
Full
Oct 21
Last Quarter

Hourly Weather History & Observations

Time (CDT) Temp. Heat Index Dew Point Humidity Pressure Visibility Wind Dir Wind Speed Gust Speed Precip Events Conditions
12:56 AM 75.0 °F - 70.0 °F 84% 29.83 in 10.0 mi WNW 5.8 mph - N/A   Clear
1:56 AM 73.9 °F - 69.1 °F 85% 29.83 in 10.0 mi WNW 8.1 mph - N/A   Clear
2:56 AM 75.0 °F - 68.0 °F 79% 29.84 in 10.0 mi WNW 6.9 mph - N/A   Clear
3:56 AM 73.9 °F - 68.0 °F 82% 29.85 in 10.0 mi NW 3.5 mph - N/A   Clear
4:56 AM 72.0 °F - 68.0 °F 87% 29.86 in 10.0 mi WNW 3.5 mph - N/A   Scattered Clouds
5:56 AM 72.0 °F - 68.0 °F 87% 29.88 in 10.0 mi Calm Calm - N/A   Partly Cloudy
6:56 AM 71.1 °F - 68.0 °F 90% 29.89 in 10.0 mi NW 4.6 mph - N/A   Scattered Clouds
7:56 AM 75.9 °F - 68.0 °F 76% 29.91 in 10.0 mi NW 4.6 mph - N/A   Scattered Clouds
8:56 AM 82.9 °F 87.0 °F 70.0 °F 65% 29.92 in 10.0 mi NNW 4.6 mph - N/A   Scattered Clouds
9:56 AM 86.0 °F 90.1 °F 69.1 °F 57% 29.93 in 10.0 mi Variable 6.9 mph - N/A   Scattered Clouds
10:56 AM 90.0 °F 94.5 °F 69.1 °F 50% 29.92 in 10.0 mi NNW 5.8 mph - N/A   Scattered Clouds
11:56 AM 91.9 °F 95.4 °F 66.9 °F 44% 29.90 in 10.0 mi NNE 4.6 mph - N/A   Scattered Clouds
12:56 PM 91.0 °F 95.2 °F 68.0 °F 47% 29.87 in 10.0 mi Variable 5.8 mph - N/A   Mostly Cloudy
1:56 PM 91.0 °F 94.3 °F 66.9 °F 45% 29.84 in 10.0 mi NW 9.2 mph - N/A   Mostly Cloudy
2:56 PM 91.0 °F 95.6 °F 69.1 °F 48% 29.82 in 10.0 mi Calm Calm - N/A   Mostly Cloudy
3:56 PM 91.0 °F 95.6 °F 69.1 °F 48% 29.82 in 10.0 mi NNW 5.8 mph - N/A   Mostly Cloudy
4:56 PM 90.0 °F 94.5 °F 69.1 °F 50% 29.82 in 10.0 mi Calm Calm - N/A   Mostly Cloudy
5:56 PM 87.1 °F 93.6 °F 72.0 °F 61% 29.82 in 10.0 mi Calm Calm - N/A   Mostly Cloudy
6:56 PM 82.9 °F 87.5 °F 71.1 °F 67% 29.83 in 10.0 mi Calm Calm - N/A   Mostly Cloudy
7:56 PM 79.0 °F - 71.1 °F 77% 29.84 in 10.0 mi Calm Calm - N/A   Mostly Cloudy
8:56 PM 77.0 °F - 72.0 °F 84% 29.86 in 10.0 mi Calm Calm - N/A   Mostly Cloudy
9:56 PM 78.1 °F - 71.1 °F 79% 29.87 in 10.0 mi West 4.6 mph - N/A   Mostly Cloudy
10:45 PM 79.0 °F - 73.0 °F 82% 29.92 in 10.0 mi West 5.8 mph - N/A   Mostly Cloudy
10:56 PM 79.0 °F - 73.0 °F 82% 29.87 in 10.0 mi West 6.9 mph - N/A   Clear
11:56 PM 78.1 °F - 73.9 °F 87% 29.87 in 10.0 mi West 5.8 mph - N/A   Clear